Regional Weather Roundup
Issued by NWS Raleigh/Durham, NC

Home | Current Version | Previous Version | Text Only | Print | Product List | Glossary On
Versions: 1 2 3 4 5 6 7 8 9 10 11 12 13 14 15 16 17 18 19 20 21 22 23 24 25 26 27
000
ASUS42 KRAH 300910
RWRRAH
NORTH CAROLINA WEATHER ROUNDUP
NATIONAL WEATHER SERVICE RALEIGH NC
500 AM EDT SUN APR 30 2017

NOTE: "FAIR" INDICATES FEW OR NO CLOUDS BELOW 12,000 FEET WITH NO
SIGNIFICANT WEATHER AND/OR OBSTRUCTIONS TO VISIBILITY.

NCZ001-053-055-056-065-067-301000-
WESTERN NORTH CAROLINA

CITY           SKY/WX    TMP DP  RH WIND       PRES   REMARKS
ASHEVILLE      NOT AVBL
JEFFERSON      DRIZZLE   64  62  93 SE5       30.20R
MORGANTON      CLOUDY    66  66 100 CALM      30.19R FOG
HICKORY        PTCLDY    68  66  93 SW10      30.14S
RUTHERFORDTON  NOT AVBL
MOUNT AIRY     NOT AVBL
BOONE          NOT AVBL
$$

NCZ021-022-025-041-071-084-088-301000-
CENTRAL NORTH CAROLINA

CITY           SKY/WX    TMP DP  RH WIND       PRES   REMARKS
CHARLOTTE      CLOUDY    70  65  84 S8        30.15S
GREENSBORO     MOCLDY    68  67  96 S9        30.14S
WINSTON-SALEM  PTCLDY    69  65  86 VRB6      30.15S
RALEIGH-DURHAM MOCLDY    71  67  87 SW10      30.16R
FORT BRAGG     CLOUDY    71  68  90 S9        30.15S
FAYETTEVILLE   CLOUDY    72  70  93 S10       30.16S
BURLINGTON     CLOUDY    69  67  93 S3        30.14F
LAURINBURG     CLOUDY    71  70  96 SW8       30.17S
$$

NCZ011-015-027-028-043-044-047-080-103-301000-
NORTHEASTERN NORTH CAROLINA

CITY           SKY/WX    TMP DP  RH WIND       PRES   REMARKS
ROCKY MT-WILSO CLOUDY    71  69  93 S9        30.16S
GREENVILLE     CLOUDY    72  70  94 SW9       30.18S
WASHINGTON     CLOUDY    71  69  94 SW12      30.18S
ELIZABETH CITY NOT AVBL
MANTEO         MOCLDY    71  69  92 W10       30.17R
CAPE HATTERAS  CLEAR     72  69  90 SW13      30.18F FOG
$$

NCZ078-087-090-091-093-098-101-301000-
SOUTHEASTERN NORTH CAROLINA

CITY           SKY/WX    TMP DP  RH WIND       PRES   REMARKS
LUMBERTON      PTCLDY    70  70 100 S6        30.16S
GOLDSBORO      CLOUDY    72  72 100 SW10      30.16S
KINSTON        CLOUDY    72  69  92 S7        30.18S
KENANSVILLE    CLOUDY    72  70  94 SW3       30.19S
NEW BERN       MOCLDY    70  70 100 S6        30.20S
CHERRY POINT   NOT AVBL
BEAUFORT       PTCLDY    72  72 100 S8        30.19F
JACKSONVILLE   PTCLDY    71  71 100 CALM      30.19R
WILMINGTON     PTCLDY    71  70  96 S7        30.19R
$$





USA.gov is the U.S. government's official web portal to all federal, state and local government web resources and services.